Location: Derby
(52.9213°N, 1.4761°W)
Time: 18:33:08
(UTC+01:00)

Tiros 1 - Visible Passes

Search period start: 21 May 2026 00:00
Search period end: 31 May 2026 00:00
Orbit: 618 x 649 km, 48.4° (Epoch: 20 May)

Date Brightness Start Highest point End Pass type
(mag) Time Alt. Az. Time Alt. Az. Time Alt. Az.
21 May 7.3 00:34:52 10° WSW 00:39:17 45° S 00:43:40 10° E visible
21 May 7.3 02:16:23 10° W 02:20:45 44° S 02:25:06 10° ESE visible
21 May 8.2 03:58:25 10° W 04:01:58 22° SSW 04:05:28 10° SSE visible
21 May 7.7 23:15:01 10° SW 23:19:13 34° SSE 23:23:22 10° E visible
22 May 7.2 00:56:09 10° WSW 01:00:37 49° S 01:05:03 10° ESE visible
22 May 7.6 02:37:51 10° W 02:42:02 35° SSW 02:46:11 10° SE visible
22 May 8.3 21:55:46 10° SSW 21:59:17 21° SSE 22:02:46 10° E visible
22 May 7.4 23:36:05 10° WSW 23:40:28 43° SSE 23:44:51 10° E visible
23 May 7.3 01:17:31 10° W 01:21:57 46° S 01:26:20 10° ESE visible
23 May 8.0 02:59:27 10° W 03:03:13 25° SSW 03:06:57 10° SSE visible
23 May 7.9 22:16:20 10° SW 22:20:25 31° SSE 22:24:30 10° E visible
23 May 7.3 23:57:19 10° WSW 00:01:48 48° S 00:06:14 10° ESE visible
24 May 7.5 01:38:58 10° W 01:43:15 38° SSW 01:47:29 10° SE visible
24 May 8.5 03:21:27 10° WSW 03:24:18 16° SW 03:27:07 10° S visible
24 May 7.5 22:37:18 10° SW 22:41:41 40° SSE 22:46:00 10° E visible
25 May 7.3 00:18:41 10° W 00:23:08 48° S 00:27:34 10° ESE visible
25 May 7.9 02:00:31 10° W 02:04:28 28° SSW 02:05:53 24° S visible
25 May 7.3 22:58:30 10° WSW 23:02:59 47° S 23:07:25 10° E visible
26 May 7.5 00:40:06 10° W 00:44:27 41° SSW 00:47:11 20° SE visible
26 May 8.6 02:22:21 10° WSW 02:24:27 17° SW 02:24:27 17° SW visible
26 May 7.3 23:19:50 10° WSW 23:24:19 49° S 23:28:46 10° ESE visible
27 May 7.8 01:01:36 10° W 01:05:42 31° SSW 01:06:36 29° S visible
27 May 7.5 21:59:41 10° WSW 22:04:10 46° S 22:08:36 10° E visible
27 May 7.4 23:41:14 10° W 23:45:39 44° SSW 23:49:00 16° SE visible
28 May 8.4 01:23:18 10° W 01:26:19 21° SW 01:26:19 21° SW visible
28 May 7.4 22:20:59 10° WSW 22:25:30 49° S 22:29:58 10° ESE visible
29 May 7.8 00:02:42 10° W 00:06:55 34° SSW 00:08:52 24° SSE visible
29 May 9.2 01:45:36 10° WSW 01:46:12 11° WSW 01:46:12 11° WSW visible
29 May 7.5 22:42:21 10° W 22:46:50 46° S 22:51:15 10° ESE visible
30 May 8.2 00:24:19 10° W 00:28:05 25° SSW 00:28:50 24° SSW visible
30 May 7.7 23:03:48 10° W 23:08:07 38° SSW 23:11:31 15° SE visible
